Location: Branche des Alpilles
(43.6087°N, 4.6976°E)
Time: 17:03:11
(UTC+00:00)

Cosmos 1356 - Pass Details

Date: 30 November 2020
Orbit: 441 x 444 km, 81.1° (Epoch: 22 January)

Event Time Altitude Azimuth Distance (km) Brightness Sun altitude
Rises 16:35:29 0° 352° (N) 2,450 7.0 -5.6°
Reaches altitude 10° 16:37:34 10° 355° (N) 1,575 6.0 -5.9°
Maximum altitude 16:40:59 68° 78° (ENE) 483 3.3 -6.5°
Drops below altitude 10° 16:44:23 10° 163° (SSE) 1,562 6.2 -7.1°
Sets 16:46:27 0° 166° (SSE) 2,428 7.2 -7.4°
